星链-35289(STARLINK-35289)

导读 | 豆包AI

STARLINK-35289是美国于2025年9月26日发射的星链卫星,隶属于SpaceX公司打造的星链星座项目。星链计划旨在构建全球卫星互联网星座,为全球不同地区提供高速低延迟的宽带网络服务,这颗卫星是星链持续扩容星座网络、完善全球覆盖能力的组成部分。

基本信息
目录编号:
65809
目录名称:
STARLINK-35289
国际标识:
2025-218U
轨道中心:
EARTH
卫星名称:
星链-35289
卫星全名:
星链-35289(STARLINK-35289)
卫星状态:
在轨 (已飞行169 天)
发射日期:
2025-09-26 UTC
国别 :
美国 (US)
星等 :
--
轨道信息
数据来源 国际轨道数据 AOE轨道数据
星历时间 2026-03-14T05:25:18+0800
12小时前
查看轨道信息
2026-03-09T04:00:00+0800
5天前
查看轨道信息
半长轴 6927.598km 6927.679km
偏心率 0.000205 0.0001814
轨道倾角 97.604° 97.603°
近地点辐角 87.283° 86.782°
升交点赤经 297.119° 292.134°
平近点角 272.863° 227.912°
近地点 548.04km 548.285km
远地点 550.882km 550.799km
周期 95.639分钟 95.640分钟
每日圈数 15.056665 15.0564
详细信息
固有亮度:
5
最大亮度:
2.5
卫星平台:
Starlink V1.0
覆盖范围:
全球
运营商:
太空探索技术公司
运营商所在国:
美国
制造商(研发单位):
太空探索技术公司
制造商所在国:
美国
使用方式:
暂无
卫星简介
Starlink 计划是 SpaceX 推出的全球卫星互联网项目,通过发射低轨道卫星,为全球尤其是偏远地区提供高速、低延迟的互联网服务。自 2019 年起,Starlink 已部署数千颗卫星,旨在缩小全球数字鸿沟,推动互联网普及。该项目还为军事、航空等行业提供通信支持,带来广泛经济效益。
2D轨道图
3D轨道图
轨道高度分析图
轨道倾角分析图
轨道综合分析图
查看轨道综合分析图